Andrews, NC

10:01 PM EDT on May 27, 2017 (GMT -0400)
Andrews

Weather History for KRHP - April, 2014

Change the Weather History Date:

Wednesday, April 23, 2014

  Actual Average (KMMI) Record (KMMI)
Temperature  
Mean Temperature 56 °F -  
Max Temperature 72 °F 73 °F 69 °F (2014)
Min Temperature 41 °F 46 °F 39 °F (2014)
Degree Days  
Heating Degree Days 8    
Growing Degree Days 6 (Base 50)    
Moisture  
Dew Point 35 °F    
Average Humidity 57    
Maximum Humidity 100    
Minimum Humidity 13    
Precipitation  
Precipitation 0.00 in - - ()
Sea Level Pressure  
Sea Level Pressure 29.94 in    
Wind  
Wind Speed 3 mph (NE)    
Max Wind Speed 13 mph    
Max Gust Speed 21 mph    
Visibility 7 miles    
Events Fog    
Averages and records for this station are not official NWS values.
T = Trace of Precipitation, MM = Missing Value Source: NWS Daily Summary

Daily Weather History Graph

Daily Weather History Graph

Search for Another Location

Airport or City:

Trip Planner

Search our weather history database for the weather conditions in past years. The results will help you decide how hot, cold, wet, or windy it might be!

Date:

Astronomy

Apr. 23, 2014 Rise Set
Actual Time 6:53 AM EDT 8:14 PM EDT
Civil Twilight 6:26 AM EDT 8:41 PM EDT
Nautical Twilight 5:54 AM EDT 9:13 PM EDT
Astronomical Twilight 5:21 AM EDT 9:46 PM EDT
Moon 3:10 AM EDT (4/23) 2:34 PM EDT (4/23)
Length of Visible Light 14h 14m
Length of Day
13h 21m
Waning Crescent, 35% of the Moon is Illuminated
Apr 23
Waning Crescent
Apr 29
New
May 6
First Quarter
May 14
Full
May 21
Last Quarter

Hourly Weather History & Observations

Time (EDT) Temp. Dew Point Humidity Pressure Visibility Wind Dir Wind Speed Gust Speed Precip Events Conditions
12:15 AM 52.2 °F 52.0 °F 99% 29.88 in 0.5 mi Calm Calm - N/A Fog Fog
12:35 AM 51.1 °F 51.1 °F 100% 29.88 in 1.2 mi Calm Calm - N/A   Overcast
12:55 AM 51.1 °F 50.9 °F 99% 29.89 in 0.5 mi Calm Calm - N/A Fog Fog
1:15 AM 50.9 °F 50.9 °F 100% 29.89 in 0.2 mi Calm Calm - N/A Fog Fog
1:55 AM 51.3 °F 51.3 °F 100% 29.89 in 1.2 mi Calm Calm - N/A   Overcast
2:15 AM 50.2 °F 50.2 °F 100% 29.88 in 1.0 mi Calm Calm - N/A   Overcast
2:35 AM 50.5 °F 50.5 °F 100% 29.88 in 0.2 mi Calm Calm - N/A Fog Fog
2:55 AM 50.5 °F 50.5 °F 100% 29.88 in 2.5 mi Calm Calm - N/A   Overcast
3:15 AM 50.4 °F 50.4 °F 100% 29.88 in 0.2 mi Calm Calm - N/A Fog Fog
3:35 AM 49.6 °F 49.6 °F 100% 29.89 in 0.2 mi Calm Calm - N/A Fog Fog
3:55 AM 47.8 °F 47.8 °F 100% 29.89 in 0.2 mi Calm Calm - N/A Fog Fog
4:15 AM 47.1 °F 47.1 °F 100% 29.89 in 0.2 mi Calm Calm - N/A Fog Fog
4:35 AM 45.1 °F 45.1 °F 100% 29.89 in 0.2 mi Calm Calm - N/A Fog Fog
4:55 AM 44.1 °F 44.1 °F 100% 29.89 in 0.2 mi Calm Calm - N/A Fog Fog
5:15 AM 43.7 °F 43.7 °F 100% 29.90 in 0.5 mi Calm Calm - N/A Fog Fog
5:35 AM 43.7 °F 43.7 °F 100% 29.91 in 0.8 mi Calm Calm - N/A   Mostly Cloudy
5:55 AM 43.9 °F 43.9 °F 100% 29.91 in 4.0 mi Calm Calm - N/A   Scattered Clouds
6:15 AM 43.0 °F 43.0 °F 100% 29.92 in 2.5 mi Calm Calm - N/A   Clear
6:35 AM 41.9 °F 41.9 °F 100% 29.92 in 1.5 mi Calm Calm - N/A   Mist
6:55 AM 41.0 °F 41.0 °F 100% 29.93 in 3.0 mi Calm Calm - N/A   Clear
7:15 AM 41.4 °F 41.4 °F 100% 29.95 in 7.0 mi Calm Calm - N/A   Clear
7:35 AM 41.2 °F 41.0 °F 99% 29.95 in 10.0 mi Calm Calm - N/A   Clear
7:55 AM 43.3 °F 43.2 °F 99% 29.96 in 10.0 mi Calm Calm - N/A   Clear
8:15 AM 45.1 °F 44.2 °F 97% 29.96 in 10.0 mi Calm Calm - N/A   Clear
8:35 AM 47.1 °F 45.1 °F 93% 29.96 in 10.0 mi Calm Calm - N/A   Clear
8:55 AM 50.5 °F 41.4 °F 71% 29.97 in 10.0 mi ENE 6.9 mph - N/A   Clear
9:15 AM 52.5 °F 37.8 °F 57% 29.97 in 10.0 mi East 9.2 mph - N/A   Clear
9:35 AM 55.9 °F 34.3 °F 44% 29.98 in 10.0 mi East 9.2 mph - N/A   Clear
9:55 AM 56.5 °F 35.1 °F 45% 29.99 in 10.0 mi East 6.9 mph - N/A   Clear
10:15 AM 58.1 °F 33.6 °F 40% 29.99 in 10.0 mi ENE 3.5 mph - N/A   Clear
10:35 AM 59.0 °F 32.9 °F 37% 30.00 in 10.0 mi East 10.4 mph - N/A   Clear
10:55 AM 60.4 °F 32.7 °F 35% 29.99 in 10.0 mi ENE 6.9 mph - N/A   Clear
11:15 AM 61.9 °F 31.1 °F 31% 30.00 in 10.0 mi ENE 11.5 mph 16.1 mph N/A   Clear
11:35 AM 62.6 °F 30.0 °F 29% 30.00 in 10.0 mi ENE 6.9 mph - N/A   Clear
11:55 AM 63.9 °F 29.5 °F 27% 29.99 in 10.0 mi East 6.9 mph 19.6 mph N/A   Clear
12:15 PM 64.6 °F 27.9 °F 25% 29.99 in 10.0 mi East 8.1 mph - N/A   Clear
12:35 PM 65.8 °F 26.2 °F 22% 29.98 in 10.0 mi East 9.2 mph - N/A   Clear
12:55 PM 66.9 °F 26.1 °F 21% 29.98 in 10.0 mi East 10.4 mph 17.3 mph N/A   Clear
1:15 PM 67.6 °F 25.0 °F 20% 29.97 in 10.0 mi East 8.1 mph - N/A   Clear
1:35 PM 68.9 °F 25.0 °F 19% 29.96 in 10.0 mi East 9.2 mph - N/A   Clear
1:55 PM 69.3 °F 22.3 °F 17% 29.96 in 10.0 mi NNE 9.2 mph - N/A   Clear
2:15 PM 70.3 °F 25.2 °F 18% 29.96 in 10.0 mi North 6.9 mph - N/A   Clear
2:35 PM 70.3 °F 23.9 °F 17% 29.95 in 10.0 mi NNE 8.1 mph - N/A   Clear
2:55 PM 70.9 °F 23.4 °F 17% 29.95 in 10.0 mi NNE 10.4 mph 19.6 mph N/A   Clear
3:15 PM 71.4 °F 23.9 °F 17% 29.94 in 10.0 mi NE 8.1 mph 20.7 mph N/A   Clear
3:55 PM 72.1 °F 18.1 °F 13% 29.93 in 10.0 mi NNE 10.4 mph 16.1 mph N/A   Clear
4:15 PM 72.0 °F 17.4 °F 13% 29.93 in 10.0 mi North 10.4 mph 19.6 mph N/A   Clear
4:35 PM 71.8 °F 19.4 °F 14% 29.92 in 10.0 mi North 10.4 mph 16.1 mph N/A   Clear
4:55 PM 71.6 °F 24.8 °F 17% 29.92 in 10.0 mi NNE 12.7 mph - N/A   Clear
5:15 PM 71.8 °F 24.6 °F 17% 29.92 in 10.0 mi NNE 8.1 mph - N/A   Clear
5:35 PM 71.8 °F 26.1 °F 18% 29.92 in 10.0 mi North 11.5 mph 16.1 mph N/A   Clear
5:55 PM 71.1 °F 23.2 °F 17% 29.92 in 10.0 mi North 9.2 mph - N/A   Clear
6:15 PM 70.7 °F 22.6 °F 16% 29.93 in 10.0 mi NE 10.4 mph - N/A   Clear
6:35 PM 70.2 °F 25.9 °F 19% 29.93 in 10.0 mi NE 8.1 mph - N/A   Clear
6:55 PM 69.8 °F 18.7 °F 14% 29.93 in 10.0 mi North 9.2 mph - N/A   Clear
7:15 PM 67.8 °F 26.8 °F 21% 29.93 in 10.0 mi North 5.8 mph - N/A   Clear
7:35 PM 66.2 °F 25.3 °F 21% 29.94 in 10.0 mi North 6.9 mph - N/A   Clear
7:55 PM 64.2 °F 26.1 °F 24% 29.94 in 10.0 mi NNE 6.9 mph - N/A   Clear
8:15 PM 61.3 °F 28.4 °F 29% 29.95 in 10.0 mi NE 4.6 mph - N/A   Clear
8:35 PM 57.0 °F 32.4 °F 39% 29.96 in 10.0 mi ESE 5.8 mph - N/A   Clear
8:55 PM 53.4 °F 33.6 °F 47% 29.96 in 10.0 mi ENE 3.5 mph - N/A   Clear
9:15 PM 50.9 °F 34.0 °F 52% 29.97 in 10.0 mi ENE 4.6 mph - N/A   Clear
9:35 PM 50.4 °F 33.4 °F 52% 29.98 in 10.0 mi East 3.5 mph - N/A   Clear
9:55 PM 49.1 °F 35.1 °F 58% 29.99 in 10.0 mi Calm Calm - N/A   Clear
10:15 PM 45.3 °F 35.2 °F 68% 29.99 in 10.0 mi Calm Calm - N/A   Clear
10:35 PM 47.5 °F 35.1 °F 62% 30.00 in 10.0 mi Calm Calm - N/A   Clear
10:55 PM 45.5 °F 34.7 °F 66% 30.00 in 10.0 mi Calm Calm - N/A   Clear
11:15 PM 45.7 °F 34.9 °F 66% 30.01 in 10.0 mi Calm Calm - N/A   Clear
11:35 PM 45.9 °F 34.5 °F 65% 30.00 in 10.0 mi Calm Calm - N/A   Clear
11:55 PM 44.4 °F 35.6 °F 71% 30.00 in 10.0 mi Calm Calm - N/A   Clear